Time,TemperatureF,DewpointF,PressureIn,WindDirection,WindDirectionDegrees,WindSpeedMPH,WindSpeedGustMPH,Humidity,HourlyPrecipIn,Conditions,Clouds,dailyrainin,SoftwareType,DateUTC
2013-02-04 00:08:00,35.9,34.0,29.41,ESE,117,6.0,12.0,94,0.00,,,0.00,weatherlink.com 1.10,2013-02-04 10:08:00,
2013-02-04 00:23:00,35.3,34.0,29.41,ESE,111,0.0,6.0,94,0.00,,,0.00,weatherlink.com 1.10,2013-02-04 10:23:00,
2013-02-04 00:38:00,35.4,34.0,29.41,ESE,121,3.0,8.0,94,0.00,,,0.00,weatherlink.com 1.10,2013-02-04 10:38:00,
2013-02-04 00:53:00,35.6,34.0,29.41,ENE,70,0.0,3.0,94,0.00,,,0.00,weatherlink.com 1.10,2013-02-04 10:53:00,
2013-02-04 01:08:00,35.3,34.0,29.41,SE,134,1.0,5.0,94,0.00,,,0.00,weatherlink.com 1.10,2013-02-04 11:08:00,
2013-02-04 01:23:00,35.3,34.0,29.41,ENE,77,0.0,5.0,94,0.00,,,0.00,weatherlink.com 1.10,2013-02-04 11:23:00,
2013-02-04 01:38:00,35.3,34.0,29.41,East,101,2.0,2.0,94,0.00,,,0.00,weatherlink.com 1.10,2013-02-04 11:38:00,
2013-02-04 01:53:00,35.3,34.0,29.42,East,80,2.0,5.0,94,0.00,,,0.00,weatherlink.com 1.10,2013-02-04 11:53:00,
2013-02-04 02:08:00,35.3,34.0,29.42,ENE,74,1.0,6.0,94,0.00,,,0.00,weatherlink.com 1.10,2013-02-04 12:08:00,
2013-02-04 02:23:00,35.1,34.0,29.42,ENE,71,4.0,8.0,94,0.00,,,0.00,weatherlink.com 1.10,2013-02-04 12:23:00,
2013-02-04 02:38:00,35.5,34.0,29.41,East,83,1.0,8.0,94,0.00,,,0.00,weatherlink.com 1.10,2013-02-04 12:38:00,
2013-02-04 02:53:00,35.4,34.0,29.41,ENE,70,5.0,6.0,94,0.00,,,0.00,weatherlink.com 1.10,2013-02-04 12:53:00,
2013-02-04 03:08:00,35.3,34.0,29.41,ENE,59,2.0,5.0,94,0.00,,,0.00,weatherlink.com 1.10,2013-02-04 13:08:00,
2013-02-04 03:23:00,35.2,34.0,29.42,NE,53,4.0,8.0,94,0.00,,,0.00,weatherlink.com 1.10,2013-02-04 13:23:00,
2013-02-04 03:38:00,35.2,34.0,29.42,NE,49,4.0,9.0,94,0.00,,,0.00,weatherlink.com 1.10,2013-02-04 13:38:00,
2013-02-04 03:53:00,35.2,33.0,29.42,NE,38,1.0,5.0,93,0.00,,,0.00,weatherlink.com 1.10,2013-02-04 13:53:00,
2013-02-04 04:08:00,34.9,33.0,29.42,NE,48,6.0,9.0,94,0.00,,,0.00,weatherlink.com 1.10,2013-02-04 14:08:00,
2013-02-04 04:23:00,35.1,34.0,29.43,NE,55,4.0,7.0,94,0.00,,,0.00,weatherlink.com 1.10,2013-02-04 14:23:00,
2013-02-04 04:38:00,35.2,34.0,29.42,NNE,30,6.0,8.0,94,0.00,,,0.00,weatherlink.com 1.10,2013-02-04 14:38:00,
2013-02-04 04:53:00,35.2,34.0,29.42,NE,49,2.0,8.0,94,0.00,,,0.00,weatherlink.com 1.10,2013-02-04 14:53:00,
2013-02-04 05:08:00,35.3,34.0,29.43,ENE,66,5.0,9.0,94,0.00,,,0.00,weatherlink.com 1.10,2013-02-04 15:08:00,
2013-02-04 05:23:00,35.3,34.0,29.43,ENE,60,6.0,7.0,94,0.00,,,0.00,weatherlink.com 1.10,2013-02-04 15:23:00,
2013-02-04 05:38:00,35.2,34.0,29.43,NE,34,2.0,6.0,94,0.00,,,0.00,weatherlink.com 1.10,2013-02-04 15:38:00,
2013-02-04 05:53:00,35.1,34.0,29.42,NE,53,1.0,6.0,94,0.00,,,0.00,weatherlink.com 1.10,2013-02-04 15:53:00,
2013-02-04 06:08:00,34.9,34.0,29.43,NNE,26,4.0,6.0,95,0.00,,,0.00,weatherlink.com 1.10,2013-02-04 16:08:00,
2013-02-04 06:23:00,34.9,34.0,29.43,ENE,78,4.0,5.0,95,0.00,,,0.00,weatherlink.com 1.10,2013-02-04 16:23:00,
2013-02-04 06:38:00,34.8,34.0,29.43,ENE,60,3.0,7.0,95,0.00,,,0.00,weatherlink.com 1.10,2013-02-04 16:38:00,
2013-02-04 06:53:00,34.6,33.0,29.44,ENE,58,6.0,8.0,95,0.00,,,0.00,weatherlink.com 1.10,2013-02-04 16:53:00,
2013-02-04 07:08:00,34.5,33.0,29.44,NE,47,2.0,7.0,95,0.00,,,0.00,weatherlink.com 1.10,2013-02-04 17:08:00,
2013-02-04 07:23:00,34.2,33.0,29.45,ENE,68,4.0,6.0,95,0.00,,,0.00,weatherlink.com 1.10,2013-02-04 17:23:00,
2013-02-04 07:38:00,34.3,33.0,29.45,NNE,16,5.0,6.0,95,0.00,,,0.00,weatherlink.com 1.10,2013-02-04 17:38:00,
2013-02-04 07:53:00,34.5,33.0,29.45,ENE,76,2.0,7.0,95,0.00,,,0.00,weatherlink.com 1.10,2013-02-04 17:53:00,
2013-02-04 08:08:00,34.6,33.0,29.46,ESE,105,3.0,4.0,95,0.00,,,0.00,weatherlink.com 1.10,2013-02-04 18:08:00,
2013-02-04 08:23:00,34.5,33.0,29.47,East,92,2.0,5.0,95,0.00,,,0.00,weatherlink.com 1.10,2013-02-04 18:23:00,
2013-02-04 08:38:00,34.3,33.0,29.47,East,86,1.0,2.0,95,0.00,,,0.00,weatherlink.com 1.10,2013-02-04 18:38:00,
2013-02-04 08:53:00,34.3,33.0,29.48,ENE,70,4.0,6.0,95,0.00,,,0.00,weatherlink.com 1.10,2013-02-04 18:53:00,
2013-02-04 09:08:00,34.7,34.0,29.48,NE,36,4.0,5.0,95,0.00,,,0.00,weatherlink.com 1.10,2013-02-04 19:08:00,
2013-02-04 09:23:00,35.0,34.0,29.48,ENE,75,1.0,4.0,95,0.00,,,0.00,weatherlink.com 1.10,2013-02-04 19:23:00,
2013-02-04 09:38:00,35.0,34.0,29.49,ENE,69,2.0,6.0,95,0.00,,,0.00,weatherlink.com 1.10,2013-02-04 19:38:00,
2013-02-04 09:53:00,35.0,34.0,29.50,ENE,65,0.0,6.0,95,0.00,,,0.00,weatherlink.com 1.10,2013-02-04 19:53:00,
2013-02-04 10:08:00,34.9,34.0,29.49,ENE,67,3.0,7.0,95,0.00,,,0.00,weatherlink.com 1.10,2013-02-04 20:08:00,
2013-02-04 10:24:00,35.1,34.0,29.50,ENE,69,2.0,8.0,95,0.00,,,0.00,weatherlink.com 1.10,2013-02-04 20:24:00,
2013-02-04 10:39:00,35.6,34.0,29.50,ESE,106,2.0,9.0,95,0.00,,,0.00,weatherlink.com 1.10,2013-02-04 20:39:00,
2013-02-04 10:54:00,36.6,35.0,29.50,ENE,65,4.0,11.0,95,0.00,,,0.00,weatherlink.com 1.10,2013-02-04 20:54:00,
2013-02-04 11:09:00,37.1,36.0,29.51,ESE,102,6.0,10.0,94,0.00,,,0.00,weatherlink.com 1.10,2013-02-04 21:09:00,
2013-02-04 11:24:00,37.4,36.0,29.51,ESE,116,5.0,14.0,94,0.00,,,0.00,weatherlink.com 1.10,2013-02-04 21:24:00,
2013-02-04 11:39:00,37.6,36.0,29.51,SE,142,4.0,11.0,93,0.00,,,0.00,weatherlink.com 1.10,2013-02-04 21:39:00,
2013-02-04 11:54:00,37.8,36.0,29.51,SE,130,14.0,16.0,92,0.00,,,0.00,weatherlink.com 1.10,2013-02-04 21:54:00,
2013-02-04 12:09:00,37.9,36.0,29.52,ESE,113,9.0,22.0,93,0.00,,,0.00,weatherlink.com 1.10,2013-02-04 22:09:00,
2013-02-04 12:24:00,38.1,36.0,29.52,ENE,76,8.0,20.0,92,0.00,,,0.00,weatherlink.com 1.10,2013-02-04 22:24:00,
2013-02-04 12:39:00,38.2,36.0,29.52,SE,133,8.0,14.0,91,0.00,,,0.00,weatherlink.com 1.10,2013-02-04 22:39:00,
2013-02-04 12:54:00,38.0,36.0,29.52,SE,138,12.0,14.0,91,0.00,,,0.00,weatherlink.com 1.10,2013-02-04 22:54:00,
2013-02-04 13:09:00,38.3,36.0,29.52,East,97,5.0,12.0,91,0.00,,,0.00,weatherlink.com 1.10,2013-02-04 23:09:00,
2013-02-04 13:24:00,38.5,36.0,29.52,ESE,118,7.0,11.0,91,0.00,,,0.00,weatherlink.com 1.10,2013-02-04 23:24:00,
2013-02-04 13:39:00,38.5,36.0,29.52,SE,132,7.0,12.0,90,0.00,,,0.00,weatherlink.com 1.10,2013-02-04 23:39:00,
2013-02-04 13:54:00,38.4,36.0,29.51,East,101,4.0,14.0,90,0.00,,,0.00,weatherlink.com 1.10,2013-02-04 23:54:00,
2013-02-04 14:09:00,38.5,36.0,29.52,SE,136,11.0,13.0,89,0.00,,,0.00,weatherlink.com 1.10,2013-02-05 00:09:00,
2013-02-04 14:24:00,38.7,36.0,29.52,ESE,109,8.0,13.0,89,0.00,,,0.00,weatherlink.com 1.10,2013-02-05 00:24:00,
2013-02-04 14:39:00,38.6,35.0,29.52,ESE,103,9.0,14.0,88,0.00,,,0.00,weatherlink.com 1.10,2013-02-05 00:39:00,
2013-02-04 14:54:00,38.6,35.0,29.52,ESE,113,6.0,13.0,88,0.00,,,0.00,weatherlink.com 1.10,2013-02-05 00:54:00,
2013-02-04 15:09:00,38.5,35.0,29.52,ESE,109,8.0,11.0,87,0.00,,,0.00,weatherlink.com 1.10,2013-02-05 01:09:00,
2013-02-04 15:24:00,38.7,35.0,29.53,ESE,113,7.0,15.0,87,0.00,,,0.00,weatherlink.com 1.10,2013-02-05 01:24:00,
2013-02-04 15:39:00,38.7,35.0,29.53,ESE,115,7.0,11.0,87,0.00,,,0.00,weatherlink.com 1.10,2013-02-05 01:39:00,
2013-02-04 15:54:00,38.7,35.0,29.53,SE,132,7.0,13.0,87,0.00,,,0.00,weatherlink.com 1.10,2013-02-05 01:54:00,
2013-02-04 16:09:00,38.6,35.0,29.53,SE,124,4.0,10.0,87,0.00,,,0.00,weatherlink.com 1.10,2013-02-05 02:09:00,
2013-02-04 16:24:00,38.5,35.0,29.54,ENE,78,6.0,8.0,87,0.00,,,0.00,weatherlink.com 1.10,2013-02-05 02:24:00,
2013-02-04 16:39:00,38.4,35.0,29.54,SE,124,10.0,10.0,87,0.00,,,0.00,weatherlink.com 1.10,2013-02-05 02:39:00,
2013-02-04 16:54:00,38.0,35.0,29.54,East,99,8.0,11.0,87,0.00,,,0.00,weatherlink.com 1.10,2013-02-05 02:54:00,
2013-02-04 17:09:00,38.1,34.0,29.53,ENE,78,4.0,10.0,86,0.00,,,0.00,weatherlink.com 1.10,2013-02-05 03:09:00,
2013-02-04 17:24:00,38.2,34.0,29.54,ESE,113,4.0,9.0,86,0.00,,,0.00,weatherlink.com 1.10,2013-02-05 03:24:00,
2013-02-04 17:39:00,38.4,34.0,29.54,East,92,6.0,11.0,85,0.00,,,0.00,weatherlink.com 1.10,2013-02-05 03:39:00,
2013-02-04 17:54:00,38.1,35.0,29.54,East,92,5.0,9.0,87,0.00,,,0.00,weatherlink.com 1.10,2013-02-05 03:54:00,
2013-02-04 18:09:00,38.0,35.0,29.54,ESE,119,8.0,11.0,88,0.00,,,0.00,weatherlink.com 1.10,2013-02-05 04:09:00,
2013-02-04 18:24:00,38.0,35.0,29.54,ESE,121,4.0,9.0,88,0.00,,,0.00,weatherlink.com 1.10,2013-02-05 04:24:00,
2013-02-04 18:39:00,38.1,35.0,29.55,East,92,1.0,10.0,88,0.00,,,0.00,weatherlink.com 1.10,2013-02-05 04:39:00,
2013-02-04 18:54:00,37.5,35.0,29.55,ESE,123,7.0,9.0,89,0.00,,,0.00,weatherlink.com 1.10,2013-02-05 04:54:00,
2013-02-04 19:09:00,38.2,35.0,29.56,ESE,117,8.0,14.0,87,0.00,,,0.00,weatherlink.com 1.10,2013-02-05 05:09:00,
2013-02-04 19:24:00,38.0,35.0,29.56,East,82,1.0,8.0,87,0.00,,,0.00,weatherlink.com 1.10,2013-02-05 05:24:00,
2013-02-04 19:39:00,37.9,34.0,29.56,SE,127,10.0,11.0,87,0.00,,,0.00,weatherlink.com 1.10,2013-02-05 05:39:00,
2013-02-04 19:54:00,38.2,34.0,29.56,East,95,5.0,11.0,86,0.00,,,0.00,weatherlink.com 1.10,2013-02-05 05:54:00,
2013-02-04 20:09:00,37.8,34.0,29.56,East,100,9.0,11.0,85,0.00,,,0.00,weatherlink.com 1.10,2013-02-05 06:09:00,
2013-02-04 20:24:00,37.8,33.0,29.55,ESE,117,6.0,11.0,84,0.00,,,0.00,weatherlink.com 1.10,2013-02-05 06:24:00,
2013-02-04 20:39:00,38.6,33.0,29.55,ESE,105,10.0,16.0,81,0.00,,,0.00,weatherlink.com 1.10,2013-02-05 06:39:00,
2013-02-04 20:54:00,38.6,33.0,29.55,ESE,121,9.0,20.0,81,0.00,,,0.00,weatherlink.com 1.10,2013-02-05 06:54:00,
2013-02-04 21:09:00,38.6,33.0,29.55,ESE,108,19.0,19.0,81,0.00,,,0.00,weatherlink.com 1.10,2013-02-05 07:09:00,
2013-02-04 21:24:00,38.6,33.0,29.55,ENE,78,9.0,18.0,81,0.00,,,0.00,weatherlink.com 1.10,2013-02-05 07:24:00,
2013-02-04 21:39:00,38.3,33.0,29.56,East,88,4.0,14.0,82,0.00,,,0.00,weatherlink.com 1.10,2013-02-05 07:39:00,
2013-02-04 21:54:00,38.3,33.0,29.56,SE,130,5.0,12.0,82,0.00,,,0.00,weatherlink.com 1.10,2013-02-05 07:54:00,
2013-02-04 22:09:00,38.1,33.0,29.57,ESE,116,7.0,11.0,83,0.00,,,0.00,weatherlink.com 1.10,2013-02-05 08:09:00,
2013-02-04 22:24:00,38.0,33.0,29.57,ESE,107,5.0,9.0,83,0.00,,,0.00,weatherlink.com 1.10,2013-02-05 08:24:00,
2013-02-04 22:39:00,37.8,33.0,29.56,East,93,4.0,6.0,84,0.00,,,0.00,weatherlink.com 1.10,2013-02-05 08:39:00,
2013-02-04 22:54:00,37.3,33.0,29.57,ENE,75,4.0,5.0,85,0.00,,,0.00,weatherlink.com 1.10,2013-02-05 08:54:00,
2013-02-04 23:09:00,37.3,33.0,29.57,NE,51,4.0,6.0,85,0.00,,,0.00,weatherlink.com 1.10,2013-02-05 09:09:00,
2013-02-04 23:24:00,37.4,33.0,29.57,East,79,1.0,4.0,84,0.00,,,0.00,weatherlink.com 1.10,2013-02-05 09:24:00,
2013-02-04 23:39:00,37.5,33.0,29.57,ENE,74,3.0,4.0,83,0.00,,,0.00,weatherlink.com 1.10,2013-02-05 09:39:00,
2013-02-04 23:54:00,37.1,33.0,29.57,NE,54,2.0,4.0,85,0.00,,,0.00,weatherlink.com 1.10,2013-02-05 09:54:00,